[[{"header":{"parameterUnit":"m.s-1","parameterCategory":1,"la1":30.2991,"la2":30.254,"lo1":-89.0895,"lo2":-89.0444,"dy":0.0017,"dx":0.0017,"nx":28,"ny":28,"refTime":"2025-09-19T03:00:00:Z","depth":0,"parameterNumber":2,"parameterNumberName":"U-component_of_WINDS"},"data":[0,0,0,0,0,0,0,0,0,0,0,0,0,0,0,0,0,0,0,0,0,0,0,0,0,0,0,0,0,0,0,0,0,0,0,0,0,0,0,0,0,0,0,0,0,0,0,0,0,0,0,0,0,0,0,0,0,0,0.2249,0.2249,0,0.2267,0.2267,0.2268,0.2313,0.2314,0.2315,0.2316,0.2333,0.2332,0.2332,0,0,0,0,0,0,0,0,0,0,0,0,0,0.2252,0.2251,0.2249,0.2249,0.2249,0.2267,0.2267,0.2268,0.2313,0.2314,0.2316,0.2317,0.2333,0.2333,0.2332,0,0,0,0,0,0,0,0,0,0,0,0,0,0.2258,0.2251,0.2249,0.2274,0.2277,0.2267,0.2268,0.2268,0.2313,0.2314,0.2316,0.2317,0.2333,0.2333,0.2332,0.2299,0,0,0.233,0.233,0,0,0,0,0,0,0,0,0.2258,0.2258,0.227,0.2273,0.2275,0.229,0.2275,0.2278,0.2313,0.2299,0.2316,0.2318,0.2317,0.2318,0.2318,0.2299,0.23,0.233,0.2329,0.2329,0.2329,0,0,0,0,0,0,0,0.2257,0.2257,0.2256,0.227,0.2273,0.2284,0.2287,0.2275,0.23,0.23,0.2304,0.2305,0.2319,0.2319,0.2319,0.23,0.233,0.2329,0.2329,0.2328,0.2254,0.2253,0,0,0,0,0,0,0.2253,0.2257,0.2256,0.2257,0.227,0.2283,0.2286,0.2283,0.23,0.2304,0.2304,0.2307,0.2319,0.232,0.232,0.228,0.2329,0.2328,0.2328,0.2256,0.2254,0.2252,0,0,0,0,0,0,0.2253,0.2253,0.2255,0.2258,0.2259,0.2281,0.2278,0.2283,0.2283,0.2303,0.2307,0.23,0.232,0.2321,0.2303,0.2282,0.2328,0.2327,0.2258,0.2255,0.2253,0.2202,0,0,0,0,0,0,0.2253,0.2252,0.224,0.2257,0.2258,0.2239,0.2277,0.2282,0.2282,0.2286,0.23,0.2303,0.2321,0.2304,0.2303,0.2282,0.2327,0.226,0.2257,0.2254,0.2206,0.2199,0.2192,0,0,0,0,0,0.2253,0.2225,0.224,0.2239,0.2244,0.2237,0.2238,0.226,0.228,0.2268,0.228,0.2303,0.2285,0.2302,0.2301,0.2279,0.2261,0.2257,0.2254,0.2209,0.22,0.2192,0,0,0,0,0,0,0.2205,0.2228,0.2244,0.2221,0.2227,0.2245,0.223,0.225,0.225,0.2254,0.2281,0.2283,0.2262,0.2269,0.2288,0.2247,0.2277,0.2273,0.2243,0.2234,0.2228,0.2225,0.2326,0,0,0,0,0,0.2191,0.2185,0.2205,0.2183,0.2185,0.2207,0.2205,0.2222,0.2228,0.2231,0.2243,0.2248,0.2243,0.224,0.2237,0.2208,0.2211,0.2193,0.2186,0.218,0.2176,0.216,0.2151,0.2241,0.2241,0.2241,0,0,0.2163,0.2176,0.2169,0.2173,0.218,0.2171,0.2209,0.2199,0.2192,0.2229,0.2213,0.2222,0.223,0.2206,0.2197,0.2212,0.2152,0.2176,0.2171,0.2169,0.2155,0.2147,0.2139,0.2238,0.2239,0.2239,0,0,0.2108,0.2117,0.2099,0.2105,0.2115,0.213,0.2125,0.2141,0.2148,0.2133,0.216,0.2153,0.2145,0.2149,0.215,0.2097,0.2117,0.2095,0.2058,0.2042,0.2035,0.2029,0.2008,0.2001,0.2091,0.2091,0.2091,0,0.2072,0.2061,0.2087,0.2075,0.2075,0.211,0.209,0.2095,0.2103,0.2102,0.2119,0.211,0.2117,0.2095,0.2082,0.2082,0.2077,0.2093,0.2034,0.2028,0.2023,0.2003,0.1996,0.2088,0.2089,0.2089,0.2089,0,0.2015,0.2007,0.1991,0.1998,0.1997,0.1982,0.2005,0.2,0.2017,0.203,0.2014,0.2025,0.2024,0.202,0.2037,0.2,0.2008,0.203,0.2059,0.2011,0.1993,0.1986,0.2084,0.2085,0.2086,0.2087,0,0,0.1928,0.195,0.1944,0.1947,0.1961,0.1955,0.1941,0.1941,0.1936,0.1941,0.1928,0.1921,0.1941,0.1942,0.1959,0.1946,0.1901,0.1969,0.1969,0.1954,0.1858,0.1841,0.1832,0.1915,0.1914,0.1913,0.1857,0,0.1874,0.1851,0.1875,0.1847,0.1839,0.1872,0.186,0.1866,0.1878,0.1873,0.1886,0.188,0.1907,0.1908,0.1896,0.1908,0.1881,0.1913,0.1902,0.1901,0.1897,0.1822,0.1804,0.1751,0.185,0.1849,0.1848,0,0.1808,0.181,0.1781,0.1796,0.1794,0.1782,0.1784,0.1779,0.1787,0.1797,0.1798,0.1819,0.1806,0.1836,0.1817,0.1838,0.1835,0.1841,0.1839,0.1837,0.187,0.1816,0.1734,0.1725,0.1838,0.1839,0.184,0,0.1744,0.174,0.1722,0.1724,0.1742,0.1733,0.174,0.1749,0.1748,0.1749,0.1748,0.1748,0.1747,0.1746,0.1766,0.1787,0.1744,0.1777,0.175,0.1749,0.1737,0.1737,0.1652,0.1739,0.174,0.174,0.174,0,0.168,0.1661,0.1694,0.1682,0.1661,0.1689,0.1667,0.1677,0.1686,0.1676,0.1706,0.1696,0.1725,0.1718,0.1734,0.1715,0.1715,0.1721,0.1725,0.1717,0.1716,0.1714,0.1717,0.1738,0.1738,0.1739,0.1739,0,0.1604,0.1626,0.1608,0.1627,0.1631,0.1615,0.163,0.162,0.1635,0.1623,0.1621,0.1643,0.1637,0.1658,0.1655,0.1666,0.1637,0.1648,0.1634,0.1636,0.1608,0.1609,0.1515,0.1504,0.1601,0.16,0.1599,0,0.1561,0.1547,0.1564,0.156,0.1566,0.1559,0.1558,0.1585,0.1582,0.159,0.1579,0.1575,0.1573,0.1561,0.1576,0.1574,0.1584,0.1551,0.1584,0.1576,0.1581,0.158,0.1578,0.1544,0.1543,0.1542,0.1541,0,0.148,0.1492,0.1489,0.149,0.1488,0.149,0.1493,0.1489,0.1517,0.1512,0.1506,0.1505,0.1502,0.1497,0.1499,0.1505,0.1526,0.1531,0.1524,0.1515,0.1506,0.1508,0.1613,0.1532,0.1533,0.1534,0.1534,0.1535,0.1418,0.1407,0.1417,0.1413,0.1419,0.1422,0.1413,0.1427,0.1423,0.1422,0.1439,0.1429,0.1437,0.1441,0.1445,0.1438,0.1453,0.1443,0.1441,0.1437,0.1431,0.1509,0.1438,0.1439,0.1439,0.1439,0.1439,0,0.1337,0.1346,0.1342,0.1347,0.1343,0.1366,0.1372,0.1367,0.1358,0.1365,0.1362,0.1355,0.1351,0.1366,0.1364,0.1355,0.1365,0.1353,0.1353,0.1353,0.1419,0.1424,0.1345,0.1345,0.1345,0.1345,0.1345,0.1345,0.1295,0.1276,0.1289,0.1274,0.1283,0.1274,0.1275,0.1277,0.1283,0.1273,0.127,0.1281,0.129,0.1289,0.1286,0.1291,0.1287,0.1271,0.1279,0.134,0.1349,0.1358,0.1362,0.1271,0.1271,0.1214,0.1213,0.1213]},{"header":{"parameterUnit":"m.s-1","parameterCategory":1,"la1":30.2991,"la2":30.254,"lo1":-89.0895,"lo2":-89.0444,"dy":0.0017,"dx":0.0017,"nx":28,"ny":28,"refTime":"2025-09-19T03:00:00:Z","depth":0,"parameterNumber":3,"parameterNumberName":"V-component_of_WINDS"},"data":[0,0,0,0,0,0,0,0,0,0,0,0,0,0,0,0,0,0,0,0,0,0,0,0,0,0,0,0,0,0,0,0,0,0,0,0,0,0,0,0,0,0,0,0,0,0,0,0,0,0,0,0,0,0,0,0,0,0,2.7151,2.7151,0,2.7171,2.7171,2.7171,2.7148,2.7147,2.7147,2.7146,2.7164,2.7165,2.7166,0,0,0,0,0,0,0,0,0,0,0,0,0,2.709,2.7091,2.7151,2.7151,2.7151,2.7171,2.7171,2.7171,2.7148,2.7147,2.7146,2.7145,2.7163,2.7165,2.7166,0,0,0,0,0,0,0,0,0,0,0,0,0,2.7113,2.7091,2.7151,2.7142,2.7142,2.7171,2.7171,2.7171,2.7149,2.7147,2.7146,2.7145,2.7163,2.7165,2.7167,2.7204,0,0,2.7172,2.7173,0,0,0,0,0,0,0,0,2.7112,2.7116,2.7143,2.7143,2.7142,2.7156,2.7156,2.7182,2.7149,2.7146,2.7146,2.7144,2.7162,2.7164,2.717,2.7205,2.7206,2.7173,2.7174,2.7175,2.7175,0,0,0,0,0,0,0,2.7111,2.7115,2.7159,2.7144,2.7143,2.7136,2.7138,2.7161,2.7161,2.7146,2.7144,2.7147,2.7161,2.7169,2.7171,2.7206,2.7173,2.7174,2.7175,2.7176,2.7271,2.7273,0,0,0,0,0,0,2.711,2.7114,2.7158,2.7159,2.7124,2.7139,2.7141,2.7153,2.7161,2.7161,2.7148,2.7146,2.7166,2.7168,2.7171,2.7214,2.7175,2.7176,2.7177,2.727,2.7272,2.7273,0,0,0,0,0,0,2.7109,2.7114,2.7157,2.7136,2.7141,2.7141,2.7155,2.7154,2.7161,2.7162,2.7162,2.7156,2.7165,2.7168,2.7196,2.7215,2.7177,2.7179,2.7268,2.727,2.7272,2.7302,0,0,0,0,0,0,2.7107,2.7114,2.7129,2.7136,2.7142,2.7182,2.7156,2.7155,2.7165,2.7162,2.7169,2.7169,2.7164,2.7193,2.7198,2.7217,2.718,2.7267,2.7269,2.7272,2.7299,2.7305,2.731,0,0,0,0,0,2.7105,2.7136,2.713,2.7135,2.7161,2.7184,2.7187,2.7181,2.7166,2.7181,2.7181,2.7169,2.7213,2.7196,2.7201,2.7221,2.7265,2.7268,2.7271,2.7297,2.7304,2.7309,0,0,0,0,0,0,2.713,2.7137,2.713,2.7165,2.7174,2.718,2.7198,2.7189,2.7202,2.7198,2.719,2.7192,2.7221,2.7224,2.7206,2.7257,2.7236,2.724,2.7254,2.726,2.7265,2.7263,2.7182,0,0,0,0,0,2.714,2.7159,2.7163,2.7193,2.7199,2.7198,2.7207,2.7202,2.7211,2.7214,2.7217,2.7226,2.7241,2.7251,2.7265,2.73,2.7301,2.7316,2.7321,2.7326,2.7329,2.7346,2.7352,2.7283,2.7283,2.7283,0,0,2.716,2.7166,2.7178,2.7199,2.7205,2.7223,2.7201,2.7222,2.7235,2.7217,2.7243,2.7246,2.7254,2.7285,2.7299,2.7289,2.7348,2.733,2.7333,2.7334,2.735,2.7356,2.7362,2.7285,2.7285,2.7285,0,0,2.7205,2.7212,2.7237,2.7244,2.7255,2.7254,2.726,2.7268,2.7269,2.7295,2.7282,2.7297,2.7325,2.7331,2.7337,2.7385,2.7374,2.739,2.7416,2.7433,2.7439,2.7443,2.7459,2.7465,2.7394,2.7394,2.7394,0,2.7227,2.7256,2.7251,2.7273,2.7281,2.7268,2.7292,2.7299,2.7314,2.7319,2.7308,2.7341,2.7346,2.7378,2.7389,2.7396,2.7402,2.7388,2.7438,2.7443,2.7447,2.7462,2.7468,2.7396,2.7396,2.7395,2.7395,0,2.7282,2.7302,2.7321,2.7336,2.7347,2.737,2.7368,2.738,2.7374,2.7374,2.74,2.7406,2.7421,2.7428,2.7423,2.7459,2.7452,2.744,2.7418,2.7456,2.7469,2.7475,2.7398,2.7398,2.7397,2.7397,0,0,2.7342,2.7355,2.7362,2.7368,2.7378,2.7393,2.7415,2.743,2.744,2.745,2.7468,2.7491,2.748,2.7487,2.7483,2.7498,2.7533,2.7483,2.7483,2.7491,2.7571,2.7579,2.7586,2.7527,2.7528,2.7528,2.757,0,2.7386,2.7425,2.7422,2.7458,2.7475,2.7463,2.7482,2.749,2.7491,2.7505,2.7506,2.7522,2.7506,2.7511,2.7525,2.7526,2.7549,2.7523,2.7541,2.7541,2.7537,2.7593,2.7602,2.7641,2.7576,2.7576,2.7577,0,2.7442,2.7455,2.7493,2.7501,2.7508,2.7525,2.7538,2.7553,2.7561,2.7561,2.757,2.7562,2.7583,2.7563,2.7591,2.7573,2.7581,2.7582,2.7584,2.7583,2.756,2.7593,2.7653,2.7658,2.7586,2.7585,2.7584,0,2.748,2.7507,2.7533,2.7539,2.7549,2.7561,2.7565,2.7573,2.7582,2.7594,2.7599,2.7613,2.762,2.763,2.7626,2.7612,2.7655,2.7634,2.7654,2.7654,2.7661,2.766,2.7722,2.767,2.7669,2.7669,2.7669,0,2.7528,2.7551,2.755,2.7566,2.7591,2.7587,2.7612,2.7615,2.7622,2.7637,2.7628,2.7642,2.7637,2.7651,2.7648,2.7671,2.7675,2.7674,2.7672,2.7673,2.7673,2.7677,2.7673,2.7671,2.7671,2.767,2.767,0,2.7573,2.7574,2.7601,2.7608,2.7611,2.7629,2.7635,2.7649,2.765,2.7669,2.7673,2.7674,2.769,2.7687,2.7705,2.7703,2.7731,2.7727,2.7728,2.7726,2.7745,2.7743,2.7809,2.7817,2.7761,2.7762,2.7762,0,2.7603,2.7621,2.763,2.764,2.7646,2.7662,2.7671,2.7668,2.7678,2.7689,2.7702,2.7717,2.7729,2.7755,2.7756,2.7769,2.7764,2.7787,2.7766,2.7766,2.7762,2.776,2.7761,2.779,2.7791,2.7791,2.7792,0,2.7655,2.7654,2.7669,2.7683,2.7695,2.7706,2.7716,2.7724,2.7722,2.7733,2.775,2.7759,2.7777,2.7792,2.7804,2.7808,2.7799,2.7799,2.7803,2.7803,2.7802,2.7801,2.7737,2.7796,2.7796,2.7796,2.7795,2.7795,2.7692,2.7707,2.7716,2.7732,2.7739,2.7749,2.7762,2.7765,2.7779,2.7793,2.7791,2.7809,2.7816,2.7832,2.7837,2.7851,2.7842,2.785,2.7851,2.7853,2.7854,2.7802,2.7853,2.7853,2.7853,2.7853,2.7853,0,2.7742,2.7747,2.7762,2.7777,2.7789,2.7781,2.7792,2.7802,2.7819,2.7827,2.7839,2.7857,2.7872,2.7874,2.7888,2.7898,2.7894,2.7901,2.7899,2.79,2.7862,2.7855,2.7904,2.7904,2.7904,2.7904,2.7904,2.7904,2.7769,2.7793,2.7794,2.7821,2.7826,2.7844,2.7851,2.7859,2.7865,2.7887,2.7899,2.7901,2.7907,2.792,2.7933,2.7933,2.7937,2.7946,2.7945,2.7908,2.7903,2.7898,2.7892,2.7948,2.7948,2.7982,2.7982,2.7982]}]]